This is the latest recevied weather packets stored in our database for station/object K3HW. If no packets are shown the sender has not sent any weather packets the latest 10 day(s).
| Time | Temp. | Humidity | Pressure | Rain* | Wind** | Luminosity | Snow |
|---|---|---|---|---|---|---|---|
| 1777380581 | 12.22° C | 63% | 1025.2 hPa | 0 mm | - | 99 W/m² | - |
| 1777380277 | 12.22° C | 64% | 1025.3 hPa | 0 mm | - | 97 W/m² | - |
| 1777379973 | 11.67° C | 65% | 1025.2 hPa | 0 mm | - | 86 W/m² | - |
| 1777379669 | 11.11° C | 67% | 1025.2 hPa | 0 mm | - | 77 W/m² | - |
| 1777379365 | 10.56° C | 67% | 1025.1 hPa | 0 mm | - | 69 W/m² | - |
| 1777379061 | 10° C | 70% | 1025.1 hPa | 0 mm | - | 61 W/m² | - |
| 1777378755 | 10° C | 71% | 1025.2 hPa | 0 mm | - | 52 W/m² | - |
| 1777378453 | 9.44° C | 71% | 1025.2 hPa | 0 mm | - | 44 W/m² | - |
| 1777378148 | 9.44° C | 74% | 1025 hPa | 0 mm | - | 39 W/m² | - |
| 1777377841 | 8.89° C | 74% | 1025.2 hPa | 0 mm | - | 35 W/m² | - |
| 1777377541 | 8.33° C | 76% | 1025.5 hPa | 0 mm | - | 33 W/m² | - |
| 1777377236 | 8.33° C | 76% | 1025.4 hPa | 0 mm | - | 33 W/m² | - |
| 1777376934 | 7.78° C | 76% | 1025.4 hPa | 0 mm | - | 34 W/m² | - |
| 1777376630 | 7.78° C | 78% | 1025.6 hPa | 0 mm | - | 33 W/m² | - |
| 1777376328 | 7.22° C | 79% | 1025.6 hPa | 0 mm | - | 31 W/m² | - |
| 1777376023 | 7.22° C | 80% | 1025.9 hPa | 0 mm | - | 25 W/m² | - |
| 1777375722 | 6.67° C | 82% | 1025.5 hPa | 0 mm | - | 27 W/m² | - |
| 1777375418 | 6.67° C | 85% | 1025.6 hPa | 0 mm | - | 26 W/m² | - |
| 1777375115 | 6.11° C | 86% | 1025.5 hPa | 0 mm | - | 19 W/m² | - |
| 1777374814 | 5.56° C | 88% | 1025.7 hPa | 0 mm | - | 19 W/m² | - |
| 1777374511 | 5° C | 89% | 1025.6 hPa | 0 mm | - | 18 W/m² | - |
| 1777374208 | 4.44° C | 89% | 1025.5 hPa | 0 mm | - | 19 W/m² | - |
| 1777373903 | 4.44° C | 89% | 1025.5 hPa | 0 mm | - | 18 W/m² | - |
| 1777373601 | 3.89° C | 90% | 1025.5 hPa | 0 mm | - | 15 W/m² | - |
| 1777373297 | 3.33° C | 90% | 1025.3 hPa | 0 mm | - | 14 W/m² | - |
* Rain latest hour (hover to see other rain measurements)
** Current wind speed in m/s (hover to see current wind gust speed)